Flag for U.S.A. Weather past 2 weeks in Pensacola, Florida, U.S.A.

Now
77 °F

Overcast.


Feels Like: 79 °F
Forecast: 68 / 84 °F
Wind: 7 mph from Northeast

Location: Pensacola Regional Airport

Current Time: Sep 30, 2014 at 7:01:59 PM

Latest Report: Sep 30, 2014 at 5:53 PM


Visibility: 10 mi

Pressure: 29.87 "Hg

Humidity: 74%

Dew point: 68 °F

Location of PensacolaLocation

Historic Weather in Pensacola — Graph

°F

Pensacola temperature yesterday

Maximum temperature yesterday: 84 °F (at 1:53 PM)
Minimum temperature yesterday: 73 °F (at 12:53 AM)
Average temperature yesterday: 76 °F

Past Weeks' High & Low Weather Summary

 TemperatureHumidityPressure
High89 °F (Sep 22, 1:53 PM)100% (Sep 15, 7:53 PM)30.20 "Hg (Sep 15, 7:53 PM)
Low60 °F (Sep 23, 6:53 AM)45% (Sep 22, 1:53 PM)29.83 "Hg (Sep 29, 4:53 PM)
Average74 °F81%30.00 "Hg
* Reported Sep 15 5:53 PM — Sep 30 5:53 PM, Pensacola, Weather by CustomWeather, © 2014

Note: Actual official high and low records may vary slightly from our data, if they occured in-between our weather recording intervals... More about our weather records

Advertising

Pensacola weather history for previous 24 hours

 ConditionsComfort  
Time TempWeatherWind HumidityBarometerVisibility
5:53 PM
Sep 30
77 °FOvercast.7 mph74%29.87 "Hg10 mi
4:53 PM78 °FOvercast.5 mph69%29.86 "Hg10 mi
3:53 PM79 °FOvercast.7 mph67%29.86 "Hg10 mi
2:53 PM80 °FOvercast.7 mph64%29.87 "Hg10 mi
1:53 PM79 °FOvercast.6 mph69%29.88 "Hg10 mi
12:53 PM79 °FOvercast.7 mph67%29.90 "Hg10 mi
11:53 AM77 °FOvercast.6 mph71%29.92 "Hg10 mi
10:53 AM77 °FOvercast.6 mph74%29.92 "Hg10 mi
9:53 AM75 °FOvercast.7 mph79%29.92 "Hg10 mi
8:53 AM73 °FOvercast.7 mph84%29.92 "Hg10 mi
7:53 AM72 °FOvercast.7 mph87%29.91 "Hg10 mi
6:53 AM71 °FLow clouds.6 mph90%29.90 "Hg10 mi
5:53 AM71 °FLow clouds.6 mph93%29.89 "Hg10 mi
4:53 AM71 °FPassing clouds.6 mph93%29.87 "Hg10 mi
3:53 AM71 °FPassing clouds.6 mph93%29.86 "Hg10 mi
2:53 AM72 °FPassing clouds.5 mph93%29.86 "Hg10 mi
1:53 AM73 °FClear.5 mph90%29.87 "Hg10 mi
12:53 AM73 °FClear.5 mph90%29.86 "Hg10 mi
11:53 PM
Sep 29
74 °FClear.5 mph88%29.87 "Hg10 mi
10:53 PM75 °FPassing clouds.6 mph85%29.88 "Hg10 mi
9:53 PM75 °FPassing clouds.6 mph88%29.88 "Hg10 mi
8:53 PM75 °FPassing clouds.No wind88%29.87 "Hg10 mi
7:53 PM77 °FMostly cloudy.6 mph85%29.87 "Hg10 mi
Weather by CustomWeather, © 2014

See weather overviewHow to use our weather pages